Location: Leo
(52.0556°N, 112.3605°W)
Time: 08:11:55
(UTC+00:00)

FO-29 - Pass Details

Date: 02 December 2023
Orbit: 799 x 1322 km, 98.6° (Epoch: 04 March)

Event Time Altitude Azimuth Distance (km) Brightness Sun altitude
Rises 10:11:01 0° 16° (NNE) 4,061 13.1 -45.3°
Reaches altitude 10° 10:13:37 10° 21° (NNE) 3,156 12.5 -45.0°
Enters shadow 10:17:14 32° 34° (NE) 2,020 11.3 -44.5°
